Time,TemperatureF,DewpointF,PressureIn,WindDirection,WindDirectionDegrees,WindSpeedMPH,WindSpeedGustMPH,Humidity,HourlyPrecipIn,Conditions,Clouds,dailyrainin,SoftwareType,DateUTC
2013-03-03 00:01:00,48.0,-99.9,30.12,WNW,294,3.0,5.0,-999,-99.99,,,-99.99,,2013-03-03 08:01:00,
2013-03-03 00:11:00,48.0,-99.9,30.13,NW,304,2.0,3.0,-999,-99.99,,,-99.99,,2013-03-03 08:11:00,
2013-03-03 00:21:00,48.0,-99.9,30.13,NE,46,0.0,3.0,-999,-99.99,,,-99.99,,2013-03-03 08:21:00,
2013-03-03 00:32:00,-999.0,-99.9,-100.00,NW,309,2.0,3.0,-999,-99.99,,,-99.99,,2013-03-03 08:32:00,
2013-03-03 00:42:00,48.0,-99.9,30.12,NE,39,5.0,6.0,-999,-99.99,,,-99.99,,2013-03-03 08:42:00,
2013-03-03 00:54:00,48.0,-99.9,30.12,NE,43,2.0,8.0,-999,-99.99,,,-99.99,,2013-03-03 08:54:00,
2013-03-03 01:02:00,48.0,-99.9,30.12,NE,50,3.0,5.0,-999,-99.99,,,-99.99,,2013-03-03 09:02:00,
2013-03-03 01:12:00,48.0,-99.9,30.13,NNE,33,1.0,5.0,-999,-99.99,,,-99.99,,2013-03-03 09:12:00,
2013-03-03 01:22:00,48.0,-99.9,30.13,NE,52,4.0,6.0,-999,-99.99,,,-99.99,,2013-03-03 09:22:00,
2013-03-03 01:32:00,48.0,-99.9,30.12,NE,47,4.0,6.0,-999,-99.99,,,-99.99,,2013-03-03 09:32:00,
2013-03-03 01:42:00,48.0,-99.9,30.12,NE,52,2.0,3.0,-999,-99.99,,,-99.99,,2013-03-03 09:42:00,
2013-03-03 01:52:00,48.0,-99.9,30.12,NNE,28,3.0,5.0,-999,-99.99,,,-99.99,,2013-03-03 09:52:00,
2013-03-03 02:01:00,49.0,-99.9,30.12,NW,309,3.0,4.0,-999,-99.99,,,-99.99,,2013-03-03 10:01:00,
2013-03-03 02:12:00,49.0,-99.9,30.12,WNW,296,2.0,9.0,-999,-99.99,,,-99.99,,2013-03-03 10:12:00,
2013-03-03 02:22:00,49.0,-99.9,30.12,WNW,301,4.0,6.0,-999,-99.99,,,-99.99,,2013-03-03 10:22:00,
2013-03-03 02:32:00,49.0,-99.9,30.12,NNW,340,3.0,6.0,-999,-99.99,,,-99.99,,2013-03-03 10:32:00,
2013-03-03 02:42:00,49.0,-99.9,30.11,WNW,286,2.0,4.0,-999,-99.99,,,-99.99,,2013-03-03 10:42:00,
2013-03-03 02:52:00,49.0,-99.9,30.11,NNW,327,2.0,4.0,-999,-99.99,,,-99.99,,2013-03-03 10:52:00,
2013-03-03 03:02:00,-999.0,-99.9,-100.00,WNW,290,5.0,7.0,-999,-99.99,,,-99.99,,2013-03-03 11:02:00,
2013-03-03 03:11:00,49.0,-99.9,30.11,WNW,299,4.0,7.0,-999,-99.99,,,-99.99,,2013-03-03 11:11:00,
2013-03-03 03:22:00,49.0,-99.9,30.11,NW,304,4.0,6.0,-999,-99.99,,,-99.99,,2013-03-03 11:22:00,
2013-03-03 03:32:00,49.0,-99.9,30.11,WNW,286,2.0,6.0,-999,-99.99,,,-99.99,,2013-03-03 11:32:00,
2013-03-03 03:42:00,49.0,-99.9,30.11,WNW,299,5.0,7.0,-999,-99.99,,,-99.99,,2013-03-03 11:42:00,
2013-03-03 03:53:00,32.0,-99.9,-100.00,WNW,294,3.0,6.0,-999,-99.99,,,-99.99,,2013-03-03 11:53:00,
2013-03-03 04:02:00,-999.0,-99.9,-100.00,NNW,346,2.0,6.0,-999,-99.99,,,-99.99,,2013-03-03 12:02:00,
2013-03-03 04:11:00,49.0,-99.9,30.11,East,88,2.0,6.0,-999,-99.99,,,-99.99,,2013-03-03 12:11:00,
2013-03-03 04:22:00,49.0,-99.9,30.11,ESE,113,2.0,5.0,-999,-99.99,,,-99.99,,2013-03-03 12:22:00,
2013-03-03 04:32:00,49.0,-99.9,30.11,WNW,303,0.0,2.0,-999,-99.99,,,-99.99,,2013-03-03 12:32:00,
2013-03-03 04:43:00,49.0,-99.9,30.11,North,358,1.0,3.0,-999,-99.99,,,-99.99,,2013-03-03 12:43:00,
2013-03-03 04:53:00,48.0,-99.9,30.11,WNW,289,3.0,5.0,-999,-99.99,,,-99.99,,2013-03-03 12:53:00,
2013-03-03 05:02:00,48.0,-99.9,30.11,WNW,293,3.0,6.0,-999,-99.99,,,-99.99,,2013-03-03 13:02:00,
2013-03-03 05:11:00,48.0,-99.9,30.11,NW,313,3.0,5.0,-999,-99.99,,,-99.99,,2013-03-03 13:11:00,
2013-03-03 05:22:00,48.0,-99.9,30.11,NNW,339,3.0,5.0,-999,-99.99,,,-99.99,,2013-03-03 13:22:00,
2013-03-03 05:32:00,49.0,-99.9,30.12,NNW,330,2.0,3.0,-999,-99.99,,,-99.99,,2013-03-03 13:32:00,
2013-03-03 05:42:00,49.0,-99.9,30.12,NW,305,2.0,3.0,-999,-99.99,,,-99.99,,2013-03-03 13:42:00,
2013-03-03 05:52:00,49.0,-99.9,30.12,ESE,105,1.0,4.0,-999,-99.99,,,-99.99,,2013-03-03 13:52:00,
2013-03-03 06:02:00,48.0,-99.9,30.12,WSW,250,0.0,2.0,-999,-99.99,,,-99.99,,2013-03-03 14:02:00,
2013-03-03 06:11:00,48.0,-99.9,30.12,East,99,2.0,4.0,-999,-99.99,,,-99.99,,2013-03-03 14:11:00,
2013-03-03 06:22:00,48.0,-99.9,30.12,SSE,150,1.0,4.0,-999,-99.99,,,-99.99,,2013-03-03 14:22:00,
2013-03-03 06:32:00,48.0,-99.9,30.11,NE,45,3.0,6.0,-999,-99.99,,,-99.99,,2013-03-03 14:32:00,
2013-03-03 06:42:00,48.0,-99.9,30.11,NE,45,3.0,5.0,-999,-99.99,,,-99.99,,2013-03-03 14:42:00,
2013-03-03 06:52:00,48.0,-99.9,30.11,ENE,66,4.0,6.0,-999,-99.99,,,-99.99,,2013-03-03 14:52:00,
2013-03-03 07:02:00,48.0,-99.9,30.11,NW,311,2.0,6.0,-999,-99.99,,,-99.99,,2013-03-03 15:02:00,
2013-03-03 07:11:00,48.0,-99.9,30.11,WNW,300,4.0,6.0,-999,-99.99,,,-99.99,,2013-03-03 15:11:00,
2013-03-03 07:22:00,48.0,-99.9,30.11,NW,312,3.0,5.0,-999,-99.99,,,-99.99,,2013-03-03 15:22:00,
2013-03-03 07:32:00,48.0,-99.9,30.11,NW,307,3.0,5.0,-999,-99.99,,,-99.99,,2013-03-03 15:32:00,
2013-03-03 07:42:00,-999.0,-99.9,-100.00,WNW,292,3.0,5.0,-999,-99.99,,,-99.99,,2013-03-03 15:42:00,
2013-03-03 07:52:00,-999.0,-99.9,-100.00,WNW,296,3.0,5.0,-999,-99.99,,,-99.99,,2013-03-03 15:52:00,
2013-03-03 08:02:00,48.0,-99.9,30.12,NW,313,2.0,4.0,-999,-99.99,,,-99.99,,2013-03-03 16:02:00,
2013-03-03 08:12:00,48.0,-99.9,30.11,NW,309,2.0,5.0,-999,-99.99,,,-99.99,,2013-03-03 16:12:00,
2013-03-03 08:22:00,48.0,-99.9,30.11,WNW,300,3.0,4.0,-999,-99.99,,,-99.99,,2013-03-03 16:22:00,
2013-03-03 08:32:00,48.0,-99.9,30.11,WNW,301,3.0,6.0,-999,-99.99,,,-99.99,,2013-03-03 16:32:00,
2013-03-03 08:42:00,49.0,-99.9,30.11,WNW,292,6.0,9.0,-999,-99.99,,,-99.99,,2013-03-03 16:42:00,
2013-03-03 08:52:00,49.0,-99.9,30.11,WNW,292,6.0,8.0,-999,-99.99,,,-99.99,,2013-03-03 16:52:00,
2013-03-03 09:01:00,49.0,-99.9,30.11,WNW,288,6.0,10.0,-999,-99.99,,,-99.99,,2013-03-03 17:01:00,
2013-03-03 09:12:00,32.0,-99.9,-100.00,WNW,282,6.0,8.0,-999,-99.99,,,-99.99,,2013-03-03 17:12:00,
2013-03-03 09:22:00,48.0,-99.9,30.12,NW,308,8.0,12.0,-999,-99.99,,,-99.99,,2013-03-03 17:22:00,
2013-03-03 09:32:00,48.0,-99.9,30.13,WNW,297,6.0,12.0,-999,-99.99,,,-99.99,,2013-03-03 17:32:00,
2013-03-03 09:42:00,-999.0,-99.9,-100.00,West,277,6.0,10.0,-999,-99.99,,,-99.99,,2013-03-03 17:42:00,
2013-03-03 09:52:00,49.0,-99.9,30.13,NW,305,6.0,11.0,-999,-99.99,,,-99.99,,2013-03-03 17:52:00,
2013-03-03 10:02:00,49.0,-99.9,30.13,NW,309,6.0,12.0,-999,-99.99,,,-99.99,,2013-03-03 18:02:00,
2013-03-03 10:11:00,49.0,-99.9,30.13,NW,306,8.0,12.0,-999,-99.99,,,-99.99,,2013-03-03 18:11:00,
2013-03-03 10:22:00,49.0,-99.9,30.13,West,270,4.0,11.0,-999,-99.99,,,-99.99,,2013-03-03 18:22:00,
2013-03-03 10:32:00,49.0,-99.9,30.12,NW,312,5.0,9.0,-999,-99.99,,,-99.99,,2013-03-03 18:32:00,
2013-03-03 10:42:00,49.0,-99.9,30.12,WNW,301,4.0,7.0,-999,-99.99,,,-99.99,,2013-03-03 18:42:00,
2013-03-03 10:53:00,-999.0,-99.9,-100.00,WNW,295,7.0,11.0,-999,-99.99,,,-99.99,,2013-03-03 18:53:00,
2013-03-03 11:02:00,-999.0,-99.9,-100.00,WNW,290,11.0,12.0,-999,-99.99,,,-99.99,,2013-03-03 19:02:00,
2013-03-03 11:11:00,50.0,-99.9,30.12,WNW,293,12.0,13.0,-999,-99.99,,,-99.99,,2013-03-03 19:11:00,
2013-03-03 11:22:00,50.0,-99.9,30.12,WNW,287,12.0,15.0,-999,-99.99,,,-99.99,,2013-03-03 19:22:00,
2013-03-03 11:32:00,50.0,-99.9,30.12,WNW,289,8.0,13.0,-999,-99.99,,,-99.99,,2013-03-03 19:32:00,
2013-03-03 11:42:00,51.0,-99.9,30.12,WNW,289,8.0,11.0,-999,-99.99,,,-99.99,,2013-03-03 19:42:00,
2013-03-03 11:52:00,50.0,-99.9,30.12,WNW,301,11.0,15.0,-999,-99.99,,,-99.99,,2013-03-03 19:52:00,
2013-03-03 12:02:00,-999.0,-99.9,-100.00,WNW,299,9.0,12.0,-999,-99.99,,,-99.99,,2013-03-03 20:02:00,
2013-03-03 12:12:00,51.0,-99.9,30.12,WNW,301,10.0,15.0,-999,-99.99,,,-99.99,,2013-03-03 20:12:00,
2013-03-03 12:22:00,50.0,-99.9,30.12,WNW,299,10.0,17.0,-999,-99.99,,,-99.99,,2013-03-03 20:22:00,
2013-03-03 12:32:00,51.0,-99.9,30.12,WNW,299,9.0,13.0,-999,-99.99,,,-99.99,,2013-03-03 20:32:00,
2013-03-03 12:43:00,-999.0,-99.9,-100.00,NW,307,8.0,16.0,-999,-99.99,,,-99.99,,2013-03-03 20:43:00,
2013-03-03 12:53:00,50.0,-99.9,30.12,NW,304,11.0,19.0,-999,-99.99,,,-99.99,,2013-03-03 20:53:00,
2013-03-03 13:02:00,50.0,-99.9,30.11,WNW,298,10.0,19.0,-999,-99.99,,,-99.99,,2013-03-03 21:02:00,
2013-03-03 13:12:00,51.0,-99.9,30.11,WNW,299,9.0,17.0,-999,-99.99,,,-99.99,,2013-03-03 21:12:00,
2013-03-03 13:22:00,32.0,-99.9,-100.00,WNW,299,9.0,16.0,-999,-99.99,,,-99.99,,2013-03-03 21:22:00,
2013-03-03 13:32:00,51.0,-99.9,30.11,WNW,301,9.0,18.0,-999,-99.99,,,-99.99,,2013-03-03 21:32:00,
2013-03-03 13:42:00,50.0,-99.9,30.11,NW,308,11.0,19.0,-999,-99.99,,,-99.99,,2013-03-03 21:42:00,
2013-03-03 13:52:00,51.0,-99.9,30.10,WNW,292,9.0,19.0,-999,-99.99,,,-99.99,,2013-03-03 21:52:00,
2013-03-03 14:02:00,50.0,-99.9,30.10,WNW,293,11.0,15.0,-999,-99.99,,,-99.99,,2013-03-03 22:02:00,
2013-03-03 14:11:00,50.0,-99.9,30.10,WNW,293,10.0,17.0,-999,-99.99,,,-99.99,,2013-03-03 22:11:00,
2013-03-03 14:22:00,50.0,-99.9,30.10,WNW,302,15.0,22.0,-999,-99.99,,,-99.99,,2013-03-03 22:22:00,
2013-03-03 14:32:00,50.0,-99.9,30.10,WNW,300,11.0,16.0,-999,-99.99,,,-99.99,,2013-03-03 22:32:00,
2013-03-03 14:42:00,51.0,-99.9,30.10,WNW,287,13.0,15.0,-999,-99.99,,,-99.99,,2013-03-03 22:42:00,
2013-03-03 14:53:00,51.0,-99.9,30.10,WNW,285,13.0,17.0,-999,-99.99,,,-99.99,,2013-03-03 22:53:00,
2013-03-03 15:02:00,50.0,-99.9,30.10,West,279,10.0,13.0,-999,-99.99,,,-99.99,,2013-03-03 23:02:00,
2013-03-03 15:11:00,-999.0,-99.9,-100.00,WNW,286,8.0,12.0,-999,-99.99,,,-99.99,,2013-03-03 23:11:00,
2013-03-03 15:22:00,50.0,-99.9,30.10,WNW,303,10.0,16.0,-999,-99.99,,,-99.99,,2013-03-03 23:22:00,
2013-03-03 15:32:00,-999.0,-99.9,-100.00,WNW,298,11.0,16.0,-999,-99.99,,,-99.99,,2013-03-03 23:32:00,
2013-03-03 15:42:00,50.0,-99.9,30.10,WNW,294,10.0,15.0,-999,-99.99,,,-99.99,,2013-03-03 23:42:00,
2013-03-03 15:52:00,50.0,-99.9,30.10,WNW,291,8.0,15.0,-999,-99.99,,,-99.99,,2013-03-03 23:52:00,
2013-03-03 16:02:00,49.0,-99.9,30.10,WNW,290,9.0,14.0,-999,-99.99,,,-99.99,,2013-03-04 00:02:00,
2013-03-03 16:11:00,50.0,-99.9,30.10,WNW,302,11.0,13.0,-999,-99.99,,,-99.99,,2013-03-04 00:11:00,
2013-03-03 16:22:00,49.0,-99.9,30.10,WNW,296,6.0,12.0,-999,-99.99,,,-99.99,,2013-03-04 00:22:00,
2013-03-03 16:32:00,49.0,-99.9,30.10,WNW,285,9.0,10.0,-999,-99.99,,,-99.99,,2013-03-04 00:32:00,
2013-03-03 16:42:00,49.0,-99.9,30.09,WNW,292,5.0,11.0,-999,-99.99,,,-99.99,,2013-03-04 00:42:00,
2013-03-03 16:52:00,49.0,-99.9,30.09,WNW,298,6.0,11.0,-999,-99.99,,,-99.99,,2013-03-04 00:52:00,
2013-03-03 17:02:00,50.0,-99.9,30.10,WNW,292,6.0,11.0,-999,-99.99,,,-99.99,,2013-03-04 01:02:00,
2013-03-03 17:12:00,49.0,-99.9,30.10,NW,310,6.0,15.0,-999,-99.99,,,-99.99,,2013-03-04 01:12:00,
2013-03-03 17:22:00,49.0,-99.9,30.09,NW,311,5.0,9.0,-999,-99.99,,,-99.99,,2013-03-04 01:22:00,
2013-03-03 17:32:00,49.0,-99.9,30.10,WNW,299,9.0,13.0,-999,-99.99,,,-99.99,,2013-03-04 01:32:00,
2013-03-03 17:42:00,48.0,-99.9,30.10,WNW,292,8.0,13.0,-999,-99.99,,,-99.99,,2013-03-04 01:42:00,
2013-03-03 17:52:00,48.0,-99.9,30.10,WNW,284,5.0,10.0,-999,-99.99,,,-99.99,,2013-03-04 01:52:00,
2013-03-03 18:01:00,48.0,-99.9,30.10,WSW,246,6.0,12.0,-999,-99.99,,,-99.99,,2013-03-04 02:01:00,
2013-03-03 18:11:00,-999.0,-99.9,-100.00,WNW,297,6.0,9.0,-999,-99.99,,,-99.99,,2013-03-04 02:11:00,
2013-03-03 18:22:00,48.0,-99.9,30.10,WNW,292,6.0,9.0,-999,-99.99,,,-99.99,,2013-03-04 02:22:00,
2013-03-03 18:32:00,48.0,-99.9,30.10,NW,306,7.0,11.0,-999,-99.99,,,-99.99,,2013-03-04 02:32:00,
2013-03-03 18:42:00,48.0,-99.9,30.10,WNW,295,6.0,8.0,-999,-99.99,,,-99.99,,2013-03-04 02:42:00,
2013-03-03 18:53:00,48.0,-99.9,30.10,WNW,297,6.0,8.0,-999,-99.99,,,-99.99,,2013-03-04 02:53:00,
2013-03-03 19:02:00,48.0,-99.9,30.10,West,275,5.0,7.0,-999,-99.99,,,-99.99,,2013-03-04 03:02:00,
2013-03-03 19:11:00,48.0,-99.9,30.11,NW,309,6.0,11.0,-999,-99.99,,,-99.99,,2013-03-04 03:11:00,
2013-03-03 19:22:00,48.0,-99.9,30.11,West,277,5.0,7.0,-999,-99.99,,,-99.99,,2013-03-04 03:22:00,
2013-03-03 19:32:00,-999.0,-99.9,-100.00,WNW,289,5.0,9.0,-999,-99.99,,,-99.99,,2013-03-04 03:32:00,
2013-03-03 19:42:00,48.0,-99.9,30.12,WNW,292,5.0,7.0,-999,-99.99,,,-99.99,,2013-03-04 03:42:00,
2013-03-03 19:53:00,48.0,-99.9,30.12,West,280,5.0,9.0,-999,-99.99,,,-99.99,,2013-03-04 03:53:00,
2013-03-03 20:02:00,48.0,-99.9,30.11,WNW,290,8.0,11.0,-999,-99.99,,,-99.99,,2013-03-04 04:02:00,
2013-03-03 20:11:00,48.0,-99.9,30.12,West,281,6.0,13.0,-999,-99.99,,,-99.99,,2013-03-04 04:11:00,
2013-03-03 20:22:00,48.0,-99.9,30.12,WNW,290,6.0,11.0,-999,-99.99,,,-99.99,,2013-03-04 04:22:00,
2013-03-03 20:32:00,48.0,-99.9,30.12,WNW,297,6.0,9.0,-999,-99.99,,,-99.99,,2013-03-04 04:32:00,
2013-03-03 20:42:00,48.0,-99.9,30.12,WNW,295,6.0,9.0,-999,-99.99,,,-99.99,,2013-03-04 04:42:00,
2013-03-03 20:52:00,48.0,-99.9,30.12,WNW,301,4.0,9.0,-999,-99.99,,,-99.99,,2013-03-04 04:52:00,
2013-03-03 21:01:00,48.0,-99.9,30.12,WNW,299,3.0,6.0,-999,-99.99,,,-99.99,,2013-03-04 05:01:00,
2013-03-03 21:11:00,48.0,-99.9,30.12,WNW,290,5.0,10.0,-999,-99.99,,,-99.99,,2013-03-04 05:11:00,
2013-03-03 21:22:00,48.0,-99.9,30.12,West,276,4.0,7.0,-999,-99.99,,,-99.99,,2013-03-04 05:22:00,
2013-03-03 21:32:00,-999.0,-99.9,-100.00,West,272,2.0,8.0,-999,-99.99,,,-99.99,,2013-03-04 05:32:00,
2013-03-03 21:43:00,-999.0,-99.9,-100.00,WNW,292,4.0,9.0,-999,-99.99,,,-99.99,,2013-03-04 05:43:00,
2013-03-03 21:52:00,48.0,-99.9,30.11,WNW,287,4.0,7.0,-999,-99.99,,,-99.99,,2013-03-04 05:52:00,
2013-03-03 22:02:00,47.0,-99.9,30.11,West,271,2.0,6.0,-999,-99.99,,,-99.99,,2013-03-04 06:02:00,
2013-03-03 22:11:00,47.0,-99.9,30.11,West,274,4.0,8.0,-999,-99.99,,,-99.99,,2013-03-04 06:11:00,
2013-03-03 22:22:00,47.0,-99.9,30.11,West,281,5.0,6.0,-999,-99.99,,,-99.99,,2013-03-04 06:22:00,
2013-03-03 22:32:00,47.0,-99.9,30.11,WNW,290,4.0,8.0,-999,-99.99,,,-99.99,,2013-03-04 06:32:00,
2013-03-03 22:42:00,47.0,-99.9,30.11,WNW,287,6.0,7.0,-999,-99.99,,,-99.99,,2013-03-04 06:42:00,
2013-03-03 22:52:00,47.0,-99.9,30.11,WNW,299,5.0,8.0,-999,-99.99,,,-99.99,,2013-03-04 06:52:00,
2013-03-03 23:02:00,47.0,-99.9,30.12,NW,306,5.0,6.0,-999,-99.99,,,-99.99,,2013-03-04 07:02:00,
2013-03-03 23:11:00,47.0,-99.9,30.12,West,278,4.0,6.0,-999,-99.99,,,-99.99,,2013-03-04 07:11:00,
2013-03-03 23:22:00,47.0,-99.9,30.12,WNW,290,3.0,7.0,-999,-99.99,,,-99.99,,2013-03-04 07:22:00,
2013-03-03 23:32:00,47.0,-99.9,30.11,WNW,284,3.0,4.0,-999,-99.99,,,-99.99,,2013-03-04 07:32:00,
2013-03-03 23:42:00,47.0,-99.9,30.12,WNW,295,4.0,8.0,-999,-99.99,,,-99.99,,2013-03-04 07:42:00,
2013-03-03 23:52:00,47.0,-99.9,30.11,WNW,295,5.0,9.0,-999,-99.99,,,-99.99,,2013-03-04 07:52:00,